| time (UTC) | temp F | wind direction | speed knots | gust knots | rain 1hr in | rain 24hr in | rain mn in | humidity % | barometer mb |
| 20260505052102 | 50 | 207 | 3.5 | 7.8 | 0.00 | 0.00 | 0.00 | 89 | 1010.9 |
| 20260505051103 | 50 | 202 | 4.3 | 12.2 | 0.00 | 0.00 | 0.00 | 89 | 1010.9 |
| 20260505050124 | 50 | 193 | 4.3 | 7.8 | 0.00 | 0.00 | 0.00 | 88 | 1011.1 |
| 20260505041124 | 50 | 200 | 4.3 | 7.8 | 0.00 | 0.00 | 0.00 | 87 | 1011.2 |
| 20260505040103 | 50 | 191 | 4.3 | 8.7 | 0.00 | 0.00 | 0.00 | 87 | 1011.1 |
| 20260505035102 | 51 | 202 | 4.3 | 7.8 | 0.00 | 0.00 | 0.00 | 86 | 1011.2 |
| 20260505034103 | 51 | 201 | 4.3 | 7.8 | 0.00 | 0.00 | 0.00 | 86 | 1011.1 |
| 20260505033103 | 51 | 212 | 5.2 | 11.3 | 0.00 | 0.00 | 0.00 | 86 | 1011.1 |
| 20260505032102 | 51 | 201 | 4.3 | 8.7 | 0.00 | 0.00 | 0.00 | 86 | 1011.1 |
| 20260505031102 | 51 | 222 | 3.5 | 10.4 | 0.00 | 0.00 | 0.00 | 85 | 1011.1 |
| 20260505025103 | 51 | 214 | 5.2 | 9.6 | 0.00 | 0.00 | 0.00 | 84 | 1011.3 |
| 20260505024102 | 51 | 203 | 5.2 | 11.3 | 0.00 | 0.00 | 0.00 | 83 | 1011.3 |
| 20260505023103 | 51 | 209 | 4.3 | 12.2 | 0.00 | 0.00 | 0.00 | 83 | 1011.2 |
| 20260505022124 | 51 | 217 | 5.2 | 11.3 | 0.00 | 0.00 | 0.00 | 82 | 1011.4 |
| 20260505021103 | 52 | 220 | 3.5 | 10.4 | 0.00 | 0.00 | 0.00 | 82 | 1011.4 |
| 20260505015103 | 53 | 212 | 5.2 | 10.4 | 0.00 | 0.00 | 0.00 | 80 | 1011.3 |
| 20260505014124 | 53 | 214 | 6.1 | 12.2 | 0.00 | 0.00 | 0.00 | 79 | 1011.3 |
| 20260505013102 | 53 | 212 | 6.1 | 13.0 | 0.00 | 0.00 | 0.00 | 78 | 1011.3 |
| 20260505012103 | 54 | 215 | 4.3 | 13.0 | 0.00 | 0.00 | 0.00 | 78 | 1011.1 |
| 20260505011102 | 54 | 212 | 7.0 | 17.4 | 0.00 | 0.00 | 0.00 | 77 | 1010.9 |
| 20260505005102 | 55 | 216 | 7.0 | 16.5 | 0.00 | 0.00 | 0.00 | 75 | 1010.4 |
| 20260505004103 | 55 | 234 | 6.1 | 11.3 | 0.00 | 0.00 | 0.00 | 74 | 1010.4 |
| 20260505003103 | 55 | 227 | 4.3 | 15.6 | 0.00 | 0.00 | 0.00 | 73 | 1010.2 |
| 20260505002102 | 55 | 220 | 8.7 | 14.8 | 0.00 | 0.00 | 0.00 | 71 | 1009.9 |
| 20260505001103 | 56 | 225 | 7.0 | 14.8 | 0.00 | 0.00 | 0.00 | 70 | 1009.7 |
| 20260504235103 | 56 | 208 | 7.0 | 19.1 | 0.00 | 0.00 | 0.00 | 67 | 1009.4 |
| 20260504234103 | 57 | 226 | 10.4 | 18.2 | 0.00 | 0.00 | 0.00 | 66 | 1009.3 |
| 20260504233102 | 58 | 224 | 9.6 | 20.0 | 0.00 | 0.00 | 0.00 | 64 | 1009.2 |
| 20260504232103 | 58 | 227 | 9.6 | 21.7 | 0.00 | 0.00 | 0.00 | 62 | 1009.1 |
| 20260504231102 | 58 | 221 | 13.0 | 22.6 | 0.00 | 0.00 | 0.00 | 61 | 1008.9 |
| 20260504225102 | 59 | 221 | 8.7 | 20.9 | 0.00 | 0.00 | 0.00 | 61 | 1008.8 |
| 20260504224124 | 60 | 215 | 12.2 | 19.1 | 0.00 | 0.00 | 0.00 | 57 | 1008.7 |
| 20260504223103 | 61 | 209 | 7.0 | 20.9 | 0.00 | 0.00 | 0.00 | 56 | 1008.5 |
| 20260504222102 | 63 | 209 | 9.6 | 20.0 | 0.00 | 0.00 | 0.00 | 53 | 1008.4 |
| 20260504221104 | 63 | 215 | 10.4 | 20.0 | 0.00 | 0.00 | 0.00 | 54 | 1008.4 |
| 20260504215102 | 64 | 205 | 9.6 | 19.1 | 0.00 | 0.00 | 0.00 | 54 | 1008.3 |
| 20260504214103 | 63 | 210 | 11.3 | 23.5 | 0.00 | 0.00 | 0.00 | 54 | 1008.4 |
| 20260504213102 | 64 | 200 | 11.3 | 21.7 | 0.00 | 0.00 | 0.00 | 53 | 1008.3 |
| 20260504212123 | 64 | 216 | 10.4 | 23.5 | 0.00 | 0.00 | 0.00 | 54 | 1008.2 |
| 20260504211103 | 64 | 203 | 17.4 | 26.1 | 0.00 | 0.00 | 0.00 | 51 | 1008.1 |
| 20260504205124 | 65 | 192 | 13.9 | 23.5 | 0.00 | 0.00 | 0.00 | 51 | 1008.2 |
| 20260504204103 | 66 | 196 | 7.8 | 20.0 | 0.00 | 0.00 | 0.00 | 50 | 1008.1 |
| 20260504203102 | 65 | 197 | 13.0 | 22.6 | 0.00 | 0.00 | 0.00 | 49 | 1008.0 |
| 20260504202103 | 66 | 190 | 13.0 | 22.6 | 0.00 | 0.00 | 0.00 | 49 | 1008.0 |
| 20260504201102 | 66 | 191 | 13.0 | 22.6 | 0.00 | 0.00 | 0.00 | 49 | 1007.9 |
| 20260504195102 | 66 | 196 | 15.6 | 25.2 | 0.00 | 0.00 | 0.00 | 48 | 1008.1 |
| 20260504194102 | 67 | 201 | 12.2 | 24.3 | 0.00 | 0.00 | 0.00 | 46 | 1008.1 |
| 20260504193103 | 67 | 210 | 14.8 | 29.5 | 0.00 | 0.00 | 0.00 | 43 | 1008.1 |
| 20260504192102 | 67 | 234 | 12.2 | 24.3 | 0.00 | 0.00 | 0.00 | 43 | 1008.1 |
| 20260504191103 | 67 | 200 | 11.3 | 27.8 | 0.00 | 0.00 | 0.00 | 43 | 1008.1 |
| 20260504190123 | 68 | 203 | 13.9 | 20.9 | 0.00 | 0.00 | 0.00 | 40 | 1008.2 |
| 20260504185102 | 68 | 244 | 12.2 | 24.3 | 0.00 | 0.00 | 0.00 | 40 | 1008.2 |
| 20260504184124 | 69 | 205 | 11.3 | 20.0 | 0.00 | 0.00 | 0.00 | 40 | 1008.1 |
| 20260504183102 | 69 | 272 | 7.0 | 16.5 | 0.00 | 0.00 | 0.00 | 35 | 1008.3 |
| 20260504182103 | 69 | 254 | 8.7 | 18.2 | 0.00 | 0.00 | 0.00 | 36 | 1008.3 |
| 20260504181102 | 69 | 237 | 10.4 | 22.6 | 0.00 | 0.00 | 0.00 | 37 | 1008.5 |
| 20260504175103 | 68 | 243 | 11.3 | 26.9 | 0.00 | 0.00 | 0.00 | 36 | 1008.6 |
| 20260504174145 | 68 | 247 | 11.3 | 26.9 | 0.00 | 0.00 | 0.00 | 37 | 1008.3 |
| 20260504173102 | 68 | 247 | 8.7 | 24.3 | 0.00 | 0.00 | 0.00 | 36 | 1008.4 |
| 20260504172103 | 68 | 246 | 7.8 | 21.7 | 0.00 | 0.00 | 0.00 | 36 | 1008.6 |
| 20260504171102 | 68 | 243 | 6.1 | 23.5 | 0.00 | 0.00 | 0.00 | 37 | 1008.6 |
| 20260504151103 | 65 | 272 | 6.1 | 18.2 | 0.00 | 0.00 | 0.00 | 43 | 1009.8 |
| 20260504141103 | 64 | 246 | 6.1 | 15.6 | 0.00 | 0.01 | 0.00 | 46 | 1010.6 |
| 20260504130104 | 59 | 253 | 3.5 | 12.2 | 0.00 | 0.01 | 0.00 | 50 | 1011.1 |
| 20260504090123 | 44 | 248 | 2.6 | 7.0 | 0.00 | 0.01 | 0.00 | 70 | 1010.8 |
| 20260504081102 | 44 | 229 | 2.6 | 5.2 | 0.00 | 0.01 | 0.00 | 67 | 1010.8 |
| 20260504070124 | 40 | 243 | 0.9 | 2.6 | 0.00 | 0.01 | 0.00 | 81 | 1010.6 |